Weather History for Chariton, IA

Change the Weather History Date:

Saturday, January 5, 2013

  Actual Average Record
Temperature  
Mean Temperature 34 °F -  
Max Temperature 41 °F 30 °F 62 °F (2012)
Min Temperature 28 °F 10 °F -12 °F (1959)
Degree Days  
Heating Degree Days 30    
Moisture  
Dew Point 26 °F    
Average Humidity 75    
Maximum Humidity 80    
Minimum Humidity 69    
Precipitation  
Precipitation 0.00 in - - ()
Sea Level Pressure  
Sea Level Pressure 30.09 in    
Wind  
Wind Speed 10 mph (SW)    
Max Wind Speed 20 mph    
Max Gust Speed 26 mph    
Visibility 10 miles    
Events      
Averages and records for this station are not official NWS values.
T = Trace of Precipitation, MM = Missing Value Source: NWS Daily Summary

Daily Weather History Graph

Daily Weather History Graph

Search for Another Location

Airport:

Trip Planner

Search our weather history database for the weather conditions in past years. The results will help you decide how hot, cold, wet, or windy it might be!

Date:

Astronomy

Jan. 05, 2013 Rise Set
Actual Time 7:38 AM CST 4:59 PM CST
Civil Twilight 7:07 AM CST 5:30 PM CST
Nautical Twilight 6:33 AM CST 6:04 PM CST
Astronomical Twilight 6:00 AM CST 6:38 PM CST
Moon 12:44 AM CST (1/5) 11:51 AM CST (1/5)
Length of Visible Light 10h 22m
Length of Day
9h 21m
Last Quarter, 44% of the Moon is Illuminated
Jan 5
Last Quarter
Jan 11
New
Jan 18
First Quarter
Jan 26
Full
Feb 3
Last Quarter

Hourly Weather History & Observations

Time (CST) Temp. Windchill Dew Point Humidity Pressure Visibility Wind Dir Wind Speed Gust Speed Precip Events Conditions
12:15 AM 30.2 °F 22.6 °F 24.8 °F 80% 30.19 in 10.0 mi SSW 8.1 mph - N/A   Clear
12:35 AM 30.2 °F 21.9 °F 24.8 °F 80% 30.19 in 10.0 mi SSW 9.2 mph - N/A   Clear
12:55 AM 28.4 °F 21.2 °F 21.2 °F 74% 30.18 in 10.0 mi SSW 6.9 mph - N/A   Clear
1:15 AM 28.4 °F 21.2 °F 23.0 °F 80% 30.18 in 10.0 mi SSW 6.9 mph - N/A   Clear
1:35 AM 28.4 °F 22.2 °F 23.0 °F 80% 30.17 in 10.0 mi SSW 5.8 mph - N/A   Clear
1:55 AM 28.4 °F 20.4 °F 21.2 °F 74% 30.17 in 10.0 mi SSW 8.1 mph - N/A   Clear
2:15 AM 28.4 °F 19.7 °F 21.2 °F 74% 30.18 in 10.0 mi SSW 9.2 mph - N/A   Clear
2:35 AM 28.4 °F 20.4 °F 21.2 °F 74% 30.18 in 10.0 mi SSW 8.1 mph - N/A   Clear
2:55 AM 28.4 °F 20.4 °F 21.2 °F 74% 30.18 in 10.0 mi SSW 8.1 mph - N/A   Clear
3:15 AM 28.4 °F 19.7 °F 21.2 °F 74% 30.17 in 10.0 mi SSW 9.2 mph - N/A   Clear
3:35 AM 28.4 °F 20.4 °F 21.2 °F 74% 30.17 in 10.0 mi SSW 8.1 mph - N/A   Clear
3:55 AM 28.4 °F 21.2 °F 21.2 °F 74% 30.16 in 10.0 mi SSW 6.9 mph - N/A   Clear
4:15 AM 28.4 °F 19.1 °F 21.2 °F 74% 30.15 in 10.0 mi SSW 10.4 mph - N/A   Clear
4:35 AM 28.4 °F 19.7 °F 21.2 °F 74% 30.15 in 10.0 mi SSW 9.2 mph - N/A   Clear
4:55 AM 28.4 °F 19.1 °F 23.0 °F 80% 30.14 in 10.0 mi SSW 10.4 mph - N/A   Clear
5:15 AM 30.2 °F 21.9 °F 24.8 °F 80% 30.13 in 10.0 mi SSW 9.2 mph - N/A   Clear
5:35 AM 30.2 °F 24.3 °F 24.8 °F 80% 30.12 in 10.0 mi SSW 5.8 mph - N/A   Clear
5:55 AM 30.2 °F 20.8 °F 24.8 °F 80% 30.12 in 10.0 mi SSW 11.5 mph - N/A   Scattered Clouds
6:15 AM 30.2 °F 20.2 °F 24.8 °F 80% 30.13 in 10.0 mi SSW 12.7 mph - N/A   Clear
6:35 AM 28.4 °F 19.1 °F 23.0 °F 80% 30.13 in 10.0 mi SSW 10.4 mph - N/A   Clear
7:15 AM 28.4 °F 18.5 °F 21.2 °F 74% 30.14 in 10.0 mi SSW 11.5 mph - N/A   Clear
7:35 AM 28.4 °F 20.4 °F 23.0 °F 80% 30.12 in 10.0 mi SSW 8.1 mph - N/A   Clear
7:55 AM 30.2 °F 20.8 °F 23.0 °F 75% 30.12 in 10.0 mi South 11.5 mph - N/A   Clear
8:15 AM 30.2 °F 21.3 °F 23.0 °F 75% 30.12 in 10.0 mi SSW 10.4 mph - N/A   Clear
8:35 AM 30.2 °F 23.4 °F 24.8 °F 80% 30.12 in 10.0 mi SSW 6.9 mph - N/A   Clear
8:55 AM 32.0 °F 24.2 °F 24.8 °F 75% 30.14 in 10.0 mi SSW 9.2 mph - N/A   Clear
9:15 AM 33.8 °F 25.8 °F 26.6 °F 75% 30.13 in 10.0 mi SSW 10.4 mph - N/A   Clear
9:55 AM 35.6 °F 24.8 °F 28.4 °F 75% 30.13 in 10.0 mi SSW 19.6 mph 26.5 mph N/A   Clear
10:15 AM 35.6 °F 25.9 °F 28.4 °F 75% 30.12 in 10.0 mi South 16.1 mph - N/A   Clear
10:55 AM 39.2 °F 29.8 °F 30.2 °F 70% 30.11 in 10.0 mi SSW 18.4 mph 23.0 mph N/A   Mostly Cloudy
11:15 AM 39.2 °F 30.8 °F 30.2 °F 70% 30.09 in 10.0 mi SSW 15.0 mph 21.9 mph N/A   Overcast
11:35 AM 39.2 °F 30.8 °F 30.2 °F 70% 30.08 in 10.0 mi SSW 15.0 mph - N/A   Overcast
11:55 AM 39.2 °F 29.8 °F 32.0 °F 75% 30.06 in 10.0 mi SSW 18.4 mph 24.2 mph N/A   Overcast
12:15 PM 39.2 °F 30.5 °F 32.0 °F 75% 30.05 in 10.0 mi SSW 16.1 mph 23.0 mph N/A   Overcast
12:35 PM 39.2 °F 30.5 °F 32.0 °F 75% 30.03 in 10.0 mi SSW 16.1 mph 24.2 mph N/A   Overcast
12:55 PM 39.2 °F 30.8 °F 32.0 °F 75% 30.02 in 10.0 mi SSW 15.0 mph 19.6 mph N/A   Overcast
1:15 PM 39.2 °F 30.8 °F 32.0 °F 75% 30.01 in 10.0 mi SSW 15.0 mph 20.7 mph N/A   Overcast
1:35 PM 39.2 °F 30.5 °F 32.0 °F 75% 30.00 in 10.0 mi SW 16.1 mph 21.9 mph N/A   Overcast
1:55 PM 39.2 °F 31.6 °F 32.0 °F 75% 29.99 in 10.0 mi SW 12.7 mph 18.4 mph N/A   Overcast
2:15 PM 39.2 °F 30.5 °F 32.0 °F 75% 29.99 in 10.0 mi SW 16.1 mph 19.6 mph N/A   Overcast
2:35 PM 41.0 °F 33.9 °F 33.8 °F 76% 29.98 in 10.0 mi SW 12.7 mph 19.6 mph N/A   Overcast
2:55 PM 41.0 °F 33.9 °F 32.0 °F 70% 29.99 in 10.0 mi SW 12.7 mph 18.4 mph N/A   Overcast
3:15 PM 41.0 °F 33.5 °F 32.0 °F 70% 29.99 in 10.0 mi SW 13.8 mph 17.3 mph N/A   Overcast
3:35 PM 41.0 °F 33.5 °F 33.8 °F 76% 29.99 in 10.0 mi SSW 13.8 mph 18.4 mph N/A   Overcast
3:55 PM 41.0 °F 34.3 °F 33.8 °F 76% 29.98 in 10.0 mi SSW 11.5 mph - N/A   Overcast
4:15 PM 41.0 °F 33.9 °F 33.8 °F 76% 29.98 in 10.0 mi SW 12.7 mph - N/A   Mostly Cloudy
4:55 PM 41.0 °F 34.7 °F 32.0 °F 70% 29.99 in 10.0 mi SW 10.4 mph 18.4 mph N/A   Overcast
5:15 PM 41.0 °F 35.2 °F 32.0 °F 70% 29.99 in 10.0 mi SW 9.2 mph - N/A   Overcast
5:35 PM 39.2 °F 32.5 °F 32.0 °F 75% 29.99 in 10.0 mi WSW 10.4 mph - N/A   Mostly Cloudy
5:55 PM 39.2 °F 32.5 °F 30.2 °F 70% 30.00 in 10.0 mi WSW 10.4 mph - N/A   Scattered Clouds
6:15 PM 37.4 °F 30.3 °F 30.2 °F 75% 30.02 in 10.0 mi West 10.4 mph - N/A   Scattered Clouds
6:35 PM 37.4 °F 28.9 °F 30.2 °F 75% 30.02 in 10.0 mi West 13.8 mph 20.7 mph N/A   Scattered Clouds
6:55 PM 35.6 °F 26.6 °F 28.4 °F 75% 30.03 in 10.0 mi West 13.8 mph - N/A   Clear
7:15 PM 35.6 °F 26.6 °F 26.6 °F 70% 30.04 in 10.0 mi West 13.8 mph 18.4 mph N/A   Clear
7:55 PM 33.8 °F 23.9 °F 24.8 °F 70% 30.06 in 10.0 mi West 15.0 mph - N/A   Clear
8:15 PM 32.0 °F 20.5 °F 23.0 °F 69% 30.07 in 10.0 mi WNW 18.4 mph 25.3 mph N/A   Clear
8:35 PM 30.2 °F 20.2 °F 21.2 °F 69% 30.07 in 10.0 mi NW 12.7 mph 21.9 mph N/A   Clear
8:55 PM 30.2 °F 21.9 °F 21.2 °F 69% 30.07 in 10.0 mi WNW 9.2 mph - N/A   Mostly Cloudy
9:15 PM 30.2 °F 21.9 °F 21.2 °F 69% 30.08 in 10.0 mi West 9.2 mph - N/A   Overcast
9:35 PM 30.2 °F 21.9 °F 23.0 °F 75% 30.07 in 10.0 mi West 9.2 mph - N/A   Overcast
9:55 PM 30.2 °F 21.9 °F 23.0 °F 75% 30.07 in 10.0 mi WNW 9.2 mph - N/A   Overcast
10:15 PM 30.2 °F 21.3 °F 23.0 °F 75% 30.07 in 10.0 mi West 10.4 mph - N/A   Overcast
10:35 PM 30.2 °F 19.8 °F 23.0 °F 75% 30.07 in 10.0 mi WNW 13.8 mph 20.7 mph N/A   Overcast
10:55 PM 30.2 °F 19.3 °F 23.0 °F 75% 30.08 in 10.0 mi NW 15.0 mph 21.9 mph N/A   Overcast
11:15 PM 30.2 °F 18.9 °F 21.2 °F 69% 30.09 in 10.0 mi NW 16.1 mph 20.7 mph N/A   Overcast
11:35 PM 28.4 °F 18.5 °F 21.2 °F 74% 30.10 in 10.0 mi NW 11.5 mph 20.7 mph N/A   Overcast
11:55 PM 28.4 °F 17.0 °F 21.2 °F 74% 30.10 in 10.0 mi NW 15.0 mph 23.0 mph N/A   Overcast